Regional Weather Roundup
Issued by NWS

Home | Current Version | Previous Version | Text Only | Print | Product List | Glossary On
Versions: 1 2 3 4 5 6 7 8 9 10 11 12 13 14 15 16 17 18 19 20 21 22 23 24 25 26 27 28 29 30 31 32 33 34 35 36 37 38 39 40 41 42 43 44 45 46 47 48 49 50
000
ASUS46 KPQR 230410
RWROR

OREGON REGIONAL WEATHER ROUNDUP
NATIONAL WEATHER SERVICE PORTLAND OR
900 PM PDT FRI MAY 22 2015

NOTE: "FAIR" INDICATES FEW OR NO CLOUDS BELOW 12,000 FEET WITH
NO SIGNIFICANT WEATHER AND/OR OBSTRUCTIONS TO VISIBILITY.

ORZ001>013-230500-
NORTHWEST OREGON


CITY           SKY/WX    TMP DP  RH WIND       PRES   REMARKS
ASTORIA        CLOUDY    53  51  93 SW7       30.08S
NEWPORT        MOCLDY    52  50  93 CALM      30.14S FOG
PORTLAND       CLOUDY    59  54  83 CALM      30.06R
VANCOUVER WA   CLOUDY    59  50  72 N5        30.06R
SCAPPOOSE      CLOUDY    58  49  72 N5        30.06R
HILLSBORO      CLOUDY    58  54  86 NE3       30.06R
AURORA         CLOUDY    57  55  93 CALM      30.07R
MCMINNVILLE    MOCLDY    56  49  77 SW8       30.07R
SALEM          CLOUDY    56  49  77 W5        30.07R
CORVALLIS      PTCLDY    54  46  76 W10       30.09R
EUGENE         MOCLDY    57  48  72 W7        30.08R
$$

ORZ021-028-230500-
SOUTHWEST OREGON


CITY           SKY/WX    TMP DP  RH WIND       PRES   REMARKS
NORTH BEND     CLOUDY    54  52  94 N6        30.14R
BROOKINGS      CLEAR     54  54 100 SE6       30.06R
ROSEBURG       PTCLDY    59  46  62 N6        30.09R
SEXTON SUMMIT  MOCLDY    44  43  96 VRB6      30.07R
MEDFORD        PTCLDY    58  48  69 NE7       30.04R
$$

ORZ014>016-041-230500-
COLUMBIA GORGE


CITY           SKY/WX    TMP DP  RH WIND       PRES   REMARKS
TROUTDALE      CLOUDY    59  53  80 CALM      30.05R
THE DALLES     MOCLDY    60  48  64 NW13G22   29.92S
$$

ORZ029>031-041-044-049-050-061>064-502-503-505>511-230500-
EASTERN OREGON


CITY           SKY/WX    TMP DP  RH WIND       PRES   REMARKS
REDMOND        CLOUDY    52  45  77 NW10      29.98R
BEND           CLOUDY    54  45  71 NW6       29.99R
PRINEVILLE     CLOUDY    52  48  87 W8        29.98R
KLAMATH FALLS  CLOUDY    54  42  64 NW13      30.01S
LAKEVIEW       CLOUDY    52  46  82 CALM      30.01R
HERMISTON      MOCLDY    65  49  56 SW14      29.84R
PENDLETON      MOCLDY    62  51  67 W12       29.87R
JOHN DAY       CLOUDY    56  52  88 W14       29.95S
MEACHAM        LGT RAIN  56  51  84 CALM      29.95R
LA GRANDE      MOCLDY    61  45  55 NW13      29.90R
BAKER CITY     CLOUDY    57  50  77 NW9       29.91R
BURNS          CLOUDY    56  47  71 W6        29.94R
ROME             N/A     57  51  80 N5        29.90R
ONTARIO        CLOUDY    65  53  65 E3        29.85R THUNDER
$$



USA.gov is the U.S. government's official web portal to all federal, state and local government web resources and services.